Location: Alto Pass Reservoir
(37.5801°N, 89.3084°W)
Time: 20:38:03
(UTC+00:00)

CZ-4B R/B - Pass Details

Date: 08 December 2021
Orbit: 809 x 881 km, 99.1° (Epoch: 16 January)

Event Time Altitude Azimuth Distance (km) Brightness Sun altitude
Rises 23:30:43 0° 143° (SE) 3,379 6.2 -10.2°
Reaches altitude 10° 23:33:13 10° 136° (SE) 2,437 5.4 -10.6°
Maximum altitude 23:38:10 38° 69° (ENE) 1,234 3.6 -11.6°
Drops below altitude 10° 23:43:03 10° 3° (N) 2,415 5.4 -12.5°
Sets 23:45:31 0° 356° (N) 3,345 6.2 -12.9°
